Regional Weather Roundup
Issued by NWS Charleston, SC

Current Version | Previous Version | Graphics & Text | Print | Product List | Glossary On
Versions: 1 2 3 4 5 6 7 8 9 10 11 12 13 14 15 16 17 18 19 20 21 22 23 24 25 26 27 28 29 30 31 32 33 34 35 36 37 38 39 40 41 42 43 44 45 46 47 48 49 50
000 ASUS42 KCHS 230012 RWRCHS REGIONAL WEATHER ROUNDUP NATIONAL WEATHER SERVICE CHARLESTON SC 800 PM EDT WED MAR 22 2017 NOTE: "FAIR" INDICATES FEW OR NO CLOUDS BELOW 12,000 FEET WITH NO SIGNIFICANT WEATHER AND/OR OBSTRUCTIONS TO VISIBILITY. NOT ALL STATIONS ARE QUALITY CONTROLLED. USE DATA WITH CAUTION... ESPECIALLY DEWPOINT OBSERVATIONS. SCZ027-030-031-034>040-042>050-230100- ...SOUTHEAST SOUTH CAROLINA... CITY SKY/WX TMP DP RH WIND PRES REMARKS N CHARLESTON PTCLDY 61 50 67 E10G18 30.20R 6HR MIN TEMP: 61; 6HR MAX TEMP: 77; WATERFRONT PRK N/A 61 55 81 E15 30.17R JOHNS ISLAND FAIR 61 54 77 NE10 30.20R PINOPOLIS N/A 63 39 42 NE15 30.10R MONCKS CORNER FAIR 61 27 27 NE6 30.20R SUMMERVILLE FAIR 63 36 36 N5 30.20R BEAUFORT MCAS CLOUDY 62 54 74 E14 30.18R 6HR MIN TEMP: 62; 6HR MAX TEMP: 80; BEAUFORT ARPT FAIR 61 54 77 E10 30.18R HILTON HEAD IS PTCLDY 63 55 77 NE8 30.18R WALTERBORO CLEAR 64 41 42 NE9 30.19R ALLENDALE FAIR 68 41 37 NE8 30.16R ...SOUTHERN MIDLANDS AND PEE DEE... CITY SKY/WX TMP DP RH WIND PRES REMARKS GEORGETOWN FAIR 55 50 82 E9 30.22R KINGSTREE FAIR 59 23 25 N6 30.22R ORANGEBURG CLOUDY 62 30 29 NE8 30.20R 6HR MIN TEMP: 62; 6HR MAX TEMP: 73; BARNWELL FAIR 66 43 42 NE9 30.19R AIKEN FAIR 59 39 47 NE8 30.23R MANNING FAIR 59 28 31 NE6 30.22R COLUMBIA CLOUDY 63 27 25 NE6 30.22R 6HR MIN TEMP: 63; 6HR MAX TEMP: 73; SUMTER MOCLDY 58 28 31 N12 30.21R 6HR MIN TEMP: 58; 6HR MAX TEMP: 71; 6HR PCP: TRACE; FLORENCE MOCLDY 55 27 34 N7 30.23R 6HR MIN TEMP: 55; 6HR MAX TEMP: 69; MYRTLE BEACH MOCLDY 57 48 72 E15G21 30.23R N MYRTLE BEACH CLOUDY 56 47 71 E13G24 30.23R 6HR MIN TEMP: 56; 6HR MAX TEMP: 70; $$ GAZ063-065-086>088-099>101-113>116-118-119-134>141-150-230100- ...SOUTHEAST GEORGIA... CITY SKY/WX TMP DP RH WIND PRES REMARKS SAVANNAH ARPT PTCLDY 64 51 62 E16 30.17R 6HR MIN TEMP: 64; 6HR MAX TEMP: 82; HUNTER AAF MOCLDY 63 56 79 E12G21 30.14R 6HR MIN TEMP: 63; 6HR MAX TEMP: 80; FORT STEWART PTCLDY 65 51 60 E9 30.13R 6HR MIN TEMP: 65; 6HR MAX TEMP: 80; STATESBORO CLOUDY 71 50 46 NE3 30.14R SYLVANIA MOCLDY N/A N/A N/A E5 30.16R CLAXTON FAIR 72 52 50 NE9 30.13R ...CSRA...CENTRAL AND FAR SOUTHEAST GEORGIA... CITY SKY/WX TMP DP RH WIND PRES REMARKS THOMSON CLOUDY 65 44 47 MISG 30.23R AUGUSTA-BUSH CLOUDY 66 42 41 NE8 30.17R 6HR MIN TEMP: 66; 6HR MAX TEMP: 77; AUGUSTA-DANIEL CLOUDY 67 39 35 NE10 30.19R SWAINSBORO MOCLDY 70 50 49 NE6 30.15R VIDALIA CLOUDY 73 55 53 NE10 30.13R EASTMAN FAIR 73 44 35 NE7 30.15R HAZLEHURST FAIR 76 57 52 NE6 30.10R ALMA PTCLDY 74 57 55 VRB6 30.09R 6HR MIN TEMP: 74; 6HR MAX TEMP: 86; WAYCROSS MOCLDY 73 63 71 SE13 30.11R JESUP MOCLDY 68 54 60 SE10 30.13R BAXLEY FAIR 75 61 60 NE7 30.10R BRUNSWICK CLEAR 64 59 82 E8 30.15R SAINT SIMONS CLEAR 64 56 75 E9 30.14R 6HR MIN TEMP: 64; 6HR MAX TEMP: 84; $$ SCZ027-028-034-036>038-045-046-048>050-GAZ119-141-230100- ...LAKE AND SUPPLEMENTAL COASTAL OBSERVATIONS... STATION/POSITION TIME TEMP WIND PRES WAVE SWELL AIR SEA DIR/SP/G HT/PER HT/PER/DIR (UTC) (F) (DEG/KT/KT) (MB) (FT/S) (FT/S/D) WINYAH BAY 2245 60 70/ 8 1022.0 LAKE MURRAY 2320 62 40/ 3/ 5 1022.4 ACE BASIN NERRS NOT AVBL FORT PULASKI 2348 62 61 90/ 14/ 17 1021.5R SAPELO ISLAND 2300 65 80/ 10 1020.0 $$ ANZ835-935-AMZ111-154-330-350-352-354-370-450-454-472-230100- ...C-MAN AND BUOY OBSERVATIONS... STATION/POSITION TIME TEMP WIND PRES WAVE SWELL AIR SEA DIR/SP/G HT/PER HT/PER/DIR (UTC) (F) (DEG/KT/KT) (MB) (FT/S) (FT/S/D) BUOY 41004 2250 64 66 70/ 19/ 21 1020.0 6/ 6 2/ 80/11 BUOY 41008 2250 64 62 80/ 17/ 19 1019.1 3/ 4 2/120/11 FOLLY BEACH CMAN 0000 61 50/ 11/ 13 1023.1R CAPERS NEARSHORE 2308 61 80/ 14/ 17 1021.4R FRIPP NEARSHORE 2308 62 60 90/ 12/ 16 1020.7R STATION/POSITION TIME TEMP WIND PRES WAVE SWELL AIR SEA DIR/SP/G HT/PER HT/PER/DIR (UTC) (F) (DEG/KT/KT) (MB) (FT/S) (FT/S/D) 5E ST. MARYS GA 2330 64 N/A 4/ 4 FRYING PAN BUOY 2350 59 65 40/ 19/ 25 1023.0R 7/ 6 2/100/11 BUOY 41025 2350 48 74 20/ 23/ 29 1026.0R 10/ 9 3/ 60/11 CAPE LOOKOUT NC 0000 49 40/ 26/ 30 1025.2R BUOY 41002 2250 67 75 20/ 25/ 31 1018.1 8/ 7 7/280/ 7 BUOY 41010 NOT AVBL ST AUGUSTINE FL 0000 66 67 30/ 15/ 17 1020.2R $$

USA.gov is the U.S. government's official web portal to all federal, state and local government web resources and services.